TimeAKDT,TemperatureF,Dew PointF,Humidity,Sea Level PressureIn,VisibilityMPH,Wind Direction,Wind SpeedMPH,Gust SpeedMPH,PrecipitationIn,Events,Conditions,WindDirDegrees,DateUTC
12:53 AM,30.0,26.1,85,29.52,10.0,Calm,Calm,-,N/A,,Clear,0,2012-10-12 08:53:00
1:53 AM,30.9,27.0,85,29.50,10.0,Calm,Calm,-,N/A,,Clear,0,2012-10-12 09:53:00
2:53 AM,28.0,25.0,88,29.48,10.0,Calm,Calm,-,N/A,,Clear,0,2012-10-12 10:53:00
3:53 AM,28.9,25.0,85,29.46,10.0,Calm,Calm,-,N/A,,Clear,0,2012-10-12 11:53:00
4:53 AM,28.0,24.1,85,29.43,10.0,Calm,Calm,-,N/A,,Clear,0,2012-10-12 12:53:00
5:53 AM,25.0,21.9,88,29.41,10.0,Calm,Calm,-,N/A,,Clear,0,2012-10-12 13:53:00
6:53 AM,27.0,23.0,85,29.38,10.0,Calm,Calm,-,N/A,,Clear,0,2012-10-12 14:53:00
7:53 AM,26.1,24.1,92,29.37,10.0,Calm,Calm,-,N/A,,Partly Cloudy,0,2012-10-12 15:53:00
8:53 AM,26.1,23.0,88,29.34,10.0,Calm,Calm,-,N/A,,Partly Cloudy,0,2012-10-12 16:53:00
9:53 AM,30.0,26.1,85,29.32,9.0,Calm,Calm,-,N/A,,Partly Cloudy,0,2012-10-12 17:53:00
9:55 AM,30.2,26.6,86,29.31,10.0,Calm,Calm,-,N/A,,Clear,0,2012-10-12 17:55:00
9:56 AM,30.2,26.6,86,29.31,10.0,Calm,Calm,-,N/A,,Partly Cloudy,0,2012-10-12 17:56:00
10:53 AM,33.1,26.1,75,29.30,10.0,NNW,3.5,-,N/A,,Partly Cloudy,340,2012-10-12 18:53:00
11:53 AM,36.0,26.1,67,29.28,10.0,Calm,Calm,-,N/A,,Partly Cloudy,0,2012-10-12 19:53:00
12:53 PM,37.0,25.0,62,29.26,10.0,Calm,Calm,-,N/A,,Partly Cloudy,0,2012-10-12 20:53:00
1:53 PM,39.9,24.1,53,29.23,10.0,Calm,Calm,-,N/A,,Partly Cloudy,0,2012-10-12 21:53:00
2:53 PM,41.0,23.0,49,29.21,10.0,Calm,Calm,-,N/A,,Partly Cloudy,0,2012-10-12 22:53:00
3:53 PM,42.1,21.0,43,29.18,10.0,Calm,Calm,-,N/A,,Clear,0,2012-10-12 23:53:00
4:53 PM,41.0,21.0,45,29.16,10.0,NNW,6.9,-,N/A,,Clear,330,2012-10-13 00:53:00
5:53 PM,41.0,21.0,45,29.15,10.0,NNE,4.6,-,N/A,,Clear,20,2012-10-13 01:53:00
6:53 PM,39.0,21.0,49,29.13,10.0,Calm,Calm,-,N/A,,Clear,0,2012-10-13 02:53:00
7:53 PM,35.1,21.9,59,29.12,10.0,Calm,Calm,-,N/A,,Clear,0,2012-10-13 03:53:00
10:53 PM,30.9,25.0,79,29.12,10.0,NNE,4.6,-,N/A,,Clear,30,2012-10-13 06:53:00
11:53 PM,30.9,26.1,82,29.11,10.0,Calm,Calm,-,N/A,,Clear,0,2012-10-13 07:53:00